iso_date,Year,Hour,Min,DOY,POS_DOY,Lat,Lon,BP,Ts,Ta,has_bp,has_ts,has_ta,BuoyID,Buoy_Type,Buoy_Owner,Logistics,Hemisphere
2022-08-12T09:00:00Z,2022,9,0,224.375,224.375,81.5968,-16.6652,-999.0,2.9,-999.0,no,yes,no,300234066895230,GPS_Tracker,AWI,Polarstern,North
2022-08-13T09:07:03Z,2022,9,7,225.3799,225.3799,81.597,-16.6656,-999.0,16.8,-999.0,no,yes,no,300234066895230,GPS_Tracker,AWI,Polarstern,North
2022-08-13T12:57:01Z,2022,12,57,225.5396,225.5396,85.6104,-37.6278,-999.0,14.6,-999.0,no,yes,no,300234066895230,GPS_Tracker,AWI,Polarstern,North
2022-08-13T13:59:57Z,2022,14,0,225.5833,225.5833,85.6136,-37.6598,-999.0,9.3,-999.0,no,yes,no,300234066895230,GPS_Tracker,AWI,Polarstern,North
2022-08-13T15:00:00Z,2022,15,0,225.625,225.625,85.6158,-37.6742,-999.0,6.7,-999.0,no,yes,no,300234066895230,GPS_Tracker,AWI,Polarstern,North
2022-08-13T16:00:02Z,2022,16,0,225.6667,225.6667,85.6182,-37.691,-999.0,5.2,-999.0,no,yes,no,300234066895230,GPS_Tracker,AWI,Polarstern,North
2022-08-13T16:59:57Z,2022,17,0,225.7083,225.7083,85.621,-37.7074,-999.0,4.3,-999.0,no,yes,no,300234066895230,GPS_Tracker,AWI,Polarstern,North
2022-08-13T18:00:00Z,2022,18,0,225.75,225.75,85.6236,-37.7212,-999.0,3.5,-999.0,no,yes,no,300234066895230,GPS_Tracker,AWI,Polarstern,North
2022-08-13T19:00:02Z,2022,19,0,225.7917,225.7917,85.6264,-37.7324,-999.0,2.7,-999.0,no,yes,no,300234066895230,GPS_Tracker,AWI,Polarstern,North
2022-08-13T19:59:57Z,2022,20,0,225.8333,225.8333,85.6292,-37.7396,-999.0,2.0,-999.0,no,yes,no,300234066895230,GPS_Tracker,AWI,Polarstern,North
2022-08-13T21:00:00Z,2022,21,0,225.875,225.875,85.6318,-37.7446,-999.0,1.5,-999.0,no,yes,no,300234066895230,GPS_Tracker,AWI,Polarstern,North
2022-08-13T22:00:02Z,2022,22,0,225.9167,225.9167,85.6344,-37.7478,-999.0,1.2,-999.0,no,yes,no,300234066895230,GPS_Tracker,AWI,Polarstern,North
2022-08-13T22:59:57Z,2022,23,0,225.9583,225.9583,85.6368,-37.7528,-999.0,1.2,-999.0,no,yes,no,300234066895230,GPS_Tracker,AWI,Polarstern,North
2022-08-14T00:00:00Z,2022,0,0,226.0,226.0,85.6392,-37.7584,-999.0,1.2,-999.0,no,yes,no,300234066895230,GPS_Tracker,AWI,Polarstern,North
2022-08-14T01:00:02Z,2022,1,0,226.0417,226.0417,85.6414,-37.7698,-999.0,0.9,-999.0,no,yes,no,300234066895230,GPS_Tracker,AWI,Polarstern,North
2022-08-14T01:59:57Z,2022,2,0,226.0833,226.0833,85.6436,-37.7844,-999.0,0.8,-999.0,no,yes,no,300234066895230,GPS_Tracker,AWI,Polarstern,North
2022-08-14T03:00:00Z,2022,3,0,226.125,226.125,85.646,-37.7994,-999.0,1.4,-999.0,no,yes,no,300234066895230,GPS_Tracker,AWI,Polarstern,North
2022-08-14T04:00:02Z,2022,4,0,226.1667,226.1667,85.6486,-37.8134,-999.0,1.4,-999.0,no,yes,no,300234066895230,GPS_Tracker,AWI,Polarstern,North
2022-08-14T04:59:57Z,2022,5,0,226.2083,226.2083,85.6514,-37.8256,-999.0,1.6,-999.0,no,yes,no,300234066895230,GPS_Tracker,AWI,Polarstern,North
2022-08-14T06:00:00Z,2022,6,0,226.25,226.25,85.6544,-37.8342,-999.0,2.0,-999.0,no,yes,no,300234066895230,GPS_Tracker,AWI,Polarstern,North
2022-08-14T07:00:02Z,2022,7,0,226.2917,226.2917,85.6574,-37.8368,-999.0,2.2,-999.0,no,yes,no,300234066895230,GPS_Tracker,AWI,Polarstern,North
2022-08-14T07:59:57Z,2022,8,0,226.3333,226.3333,85.6602,-37.8344,-999.0,1.9,-999.0,no,yes,no,300234066895230,GPS_Tracker,AWI,Polarstern,North
2022-08-14T09:00:00Z,2022,9,0,226.375,226.375,85.663,-37.8296,-999.0,1.5,-999.0,no,yes,no,300234066895230,GPS_Tracker,AWI,Polarstern,North
2022-08-14T10:00:02Z,2022,10,0,226.4167,226.4167,85.666,-37.824,-999.0,1.4,-999.0,no,yes,no,300234066895230,GPS_Tracker,AWI,Polarstern,North
2022-08-14T10:59:57Z,2022,11,0,226.4583,226.4583,85.6694,-37.8168,-999.0,1.5,-999.0,no,yes,no,300234066895230,GPS_Tracker,AWI,Polarstern,North
2022-08-14T12:00:00Z,2022,12,0,226.5,226.5,85.6726,-37.813,-999.0,2.1,-999.0,no,yes,no,300234066895230,GPS_Tracker,AWI,Polarstern,North
2022-08-14T13:00:02Z,2022,13,0,226.5417,226.5417,85.6756,-37.809,-999.0,2.1,-999.0,no,yes,no,300234066895230,GPS_Tracker,AWI,Polarstern,North
2022-08-14T13:59:57Z,2022,14,0,226.5833,226.5833,85.6784,-37.8044,-999.0,2.6,-999.0,no,yes,no,300234066895230,GPS_Tracker,AWI,Polarstern,North
2022-08-14T15:00:00Z,2022,15,0,226.625,226.625,85.681,-37.8018,-999.0,2.5,-999.0,no,yes,no,300234066895230,GPS_Tracker,AWI,Polarstern,North
2022-08-14T16:00:02Z,2022,16,0,226.6667,226.6667,85.6836,-37.7992,-999.0,2.7,-999.0,no,yes,no,300234066895230,GPS_Tracker,AWI,Polarstern,North
2022-08-14T16:59:57Z,2022,17,0,226.7083,226.7083,85.6864,-37.7934,-999.0,2.7,-999.0,no,yes,no,300234066895230,GPS_Tracker,AWI,Polarstern,North
2022-08-14T18:00:00Z,2022,18,0,226.75,226.75,85.6888,-37.7842,-999.0,2.7,-999.0,no,yes,no,300234066895230,GPS_Tracker,AWI,Polarstern,North
2022-08-14T19:00:02Z,2022,19,0,226.7917,226.7917,85.691,-37.7736,-999.0,3.1,-999.0,no,yes,no,300234066895230,GPS_Tracker,AWI,Polarstern,North
2022-08-14T19:59:57Z,2022,20,0,226.8333,226.8333,85.6932,-37.7614,-999.0,3.2,-999.0,no,yes,no,300234066895230,GPS_Tracker,AWI,Polarstern,North
2022-08-14T21:00:00Z,2022,21,0,226.875,226.875,85.6952,-37.7474,-999.0,2.8,-999.0,no,yes,no,300234066895230,GPS_Tracker,AWI,Polarstern,North
2022-08-14T22:00:02Z,2022,22,0,226.9167,226.9167,85.6968,-37.7318,-999.0,2.7,-999.0,no,yes,no,300234066895230,GPS_Tracker,AWI,Polarstern,North
2022-08-14T22:59:57Z,2022,23,0,226.9583,226.9583,85.698,-37.716,-999.0,3.2,-999.0,no,yes,no,300234066895230,GPS_Tracker,AWI,Polarstern,North
2022-08-15T00:00:00Z,2022,0,0,227.0,227.0,85.6992,-37.7018,-999.0,2.6,-999.0,no,yes,no,300234066895230,GPS_Tracker,AWI,Polarstern,North
2022-08-15T01:00:02Z,2022,1,0,227.0417,227.0417,85.7002,-37.6912,-999.0,2.2,-999.0,no,yes,no,300234066895230,GPS_Tracker,AWI,Polarstern,North
2022-08-15T01:59:57Z,2022,2,0,227.0833,227.0833,85.7012,-37.684,-999.0,2.0,-999.0,no,yes,no,300234066895230,GPS_Tracker,AWI,Polarstern,North
2022-08-15T03:00:00Z,2022,3,0,227.125,227.125,85.7022,-37.6776,-999.0,1.5,-999.0,no,yes,no,300234066895230,GPS_Tracker,AWI,Polarstern,North
2022-08-15T04:00:02Z,2022,4,0,227.1667,227.1667,85.7032,-37.6726,-999.0,1.8,-999.0,no,yes,no,300234066895230,GPS_Tracker,AWI,Polarstern,North
2022-08-15T04:59:57Z,2022,5,0,227.2083,227.2083,85.7042,-37.668,-999.0,1.1,-999.0,no,yes,no,300234066895230,GPS_Tracker,AWI,Polarstern,North
2022-08-15T06:00:00Z,2022,6,0,227.25,227.25,85.7052,-37.6634,-999.0,1.7,-999.0,no,yes,no,300234066895230,GPS_Tracker,AWI,Polarstern,North
2022-08-15T07:00:02Z,2022,7,0,227.2917,227.2917,85.7066,-37.6572,-999.0,1.4,-999.0,no,yes,no,300234066895230,GPS_Tracker,AWI,Polarstern,North
2022-08-15T07:59:57Z,2022,8,0,227.3333,227.3333,85.7078,-37.6494,-999.0,1.1,-999.0,no,yes,no,300234066895230,GPS_Tracker,AWI,Polarstern,North
2022-08-15T09:00:00Z,2022,9,0,227.375,227.375,85.7094,-37.6392,-999.0,1.1,-999.0,no,yes,no,300234066895230,GPS_Tracker,AWI,Polarstern,North
2022-08-15T10:00:02Z,2022,10,0,227.4167,227.4167,85.7108,-37.6248,-999.0,0.7,-999.0,no,yes,no,300234066895230,GPS_Tracker,AWI,Polarstern,North
2022-08-15T10:59:57Z,2022,11,0,227.4583,227.4583,85.7122,-37.6098,-999.0,0.8,-999.0,no,yes,no,300234066895230,GPS_Tracker,AWI,Polarstern,North
2022-08-15T12:00:00Z,2022,12,0,227.5,227.5,85.7132,-37.595,-999.0,1.2,-999.0,no,yes,no,300234066895230,GPS_Tracker,AWI,Polarstern,North
2022-08-15T13:00:02Z,2022,13,0,227.5417,227.5417,85.7144,-37.5816,-999.0,1.7,-999.0,no,yes,no,300234066895230,GPS_Tracker,AWI,Polarstern,North
2022-08-15T13:59:57Z,2022,14,0,227.5833,227.5833,85.7156,-37.571,-999.0,2.2,-999.0,no,yes,no,300234066895230,GPS_Tracker,AWI,Polarstern,North
2022-08-15T15:00:00Z,2022,15,0,227.625,227.625,85.717,-37.5632,-999.0,2.7,-999.0,no,yes,no,300234066895230,GPS_Tracker,AWI,Polarstern,North
2022-08-15T16:00:02Z,2022,16,0,227.6667,227.6667,85.7184,-37.5572,-999.0,2.9,-999.0,no,yes,no,300234066895230,GPS_Tracker,AWI,Polarstern,North
2022-08-15T16:59:57Z,2022,17,0,227.7083,227.7083,85.72,-37.551,-999.0,3.5,-999.0,no,yes,no,300234066895230,GPS_Tracker,AWI,Polarstern,North
2022-08-15T18:00:00Z,2022,18,0,227.75,227.75,85.7216,-37.5422,-999.0,3.6,-999.0,no,yes,no,300234066895230,GPS_Tracker,AWI,Polarstern,North
2022-08-15T19:00:02Z,2022,19,0,227.7917,227.7917,85.723,-37.5314,-999.0,3.1,-999.0,no,yes,no,300234066895230,GPS_Tracker,AWI,Polarstern,North
2022-08-15T19:59:57Z,2022,20,0,227.8333,227.8333,85.7244,-37.5184,-999.0,2.7,-999.0,no,yes,no,300234066895230,GPS_Tracker,AWI,Polarstern,North
2022-08-15T21:00:00Z,2022,21,0,227.875,227.875,85.7256,-37.504,-999.0,2.3,-999.0,no,yes,no,300234066895230,GPS_Tracker,AWI,Polarstern,North
2022-08-15T22:00:02Z,2022,22,0,227.9167,227.9167,85.7268,-37.4898,-999.0,2.2,-999.0,no,yes,no,300234066895230,GPS_Tracker,AWI,Polarstern,North
2022-08-15T22:59:57Z,2022,23,0,227.9583,227.9583,85.7278,-37.4738,-999.0,2.3,-999.0,no,yes,no,300234066895230,GPS_Tracker,AWI,Polarstern,North
2022-08-16T00:00:00Z,2022,0,0,228.0,228.0,85.7288,-37.4582,-999.0,2.6,-999.0,no,yes,no,300234066895230,GPS_Tracker,AWI,Polarstern,North
2022-08-16T01:00:02Z,2022,1,0,228.0417,228.0417,85.7298,-37.444,-999.0,2.9,-999.0,no,yes,no,300234066895230,GPS_Tracker,AWI,Polarstern,North
2022-08-16T01:59:57Z,2022,2,0,228.0833,228.0833,85.7308,-37.4304,-999.0,3.1,-999.0,no,yes,no,300234066895230,GPS_Tracker,AWI,Polarstern,North
2022-08-16T03:00:00Z,2022,3,0,228.125,228.125,85.7318,-37.4178,-999.0,4.0,-999.0,no,yes,no,300234066895230,GPS_Tracker,AWI,Polarstern,North
2022-08-16T04:00:02Z,2022,4,0,228.1667,228.1667,85.7328,-37.407,-999.0,4.2,-999.0,no,yes,no,300234066895230,GPS_Tracker,AWI,Polarstern,North
2022-08-16T04:59:57Z,2022,5,0,228.2083,228.2083,85.7338,-37.3972,-999.0,3.8,-999.0,no,yes,no,300234066895230,GPS_Tracker,AWI,Polarstern,North
2022-08-16T06:00:00Z,2022,6,0,228.25,228.25,85.735,-37.3884,-999.0,3.5,-999.0,no,yes,no,300234066895230,GPS_Tracker,AWI,Polarstern,North
2022-08-16T07:00:02Z,2022,7,0,228.2917,228.2917,85.7362,-37.3782,-999.0,2.9,-999.0,no,yes,no,300234066895230,GPS_Tracker,AWI,Polarstern,North
2022-08-16T07:59:57Z,2022,8,0,228.3333,228.3333,85.7378,-37.3666,-999.0,2.3,-999.0,no,yes,no,300234066895230,GPS_Tracker,AWI,Polarstern,North
2022-08-16T09:00:00Z,2022,9,0,228.375,228.375,85.7398,-37.3534,-999.0,1.7,-999.0,no,yes,no,300234066895230,GPS_Tracker,AWI,Polarstern,North
2022-08-16T10:00:02Z,2022,10,0,228.4167,228.4167,85.7422,-37.3396,-999.0,1.1,-999.0,no,yes,no,300234066895230,GPS_Tracker,AWI,Polarstern,North
2022-08-16T10:59:57Z,2022,11,0,228.4583,228.4583,85.7448,-37.3248,-999.0,1.0,-999.0,no,yes,no,300234066895230,GPS_Tracker,AWI,Polarstern,North
2022-08-16T12:00:00Z,2022,12,0,228.5,228.5,85.7478,-37.3092,-999.0,1.1,-999.0,no,yes,no,300234066895230,GPS_Tracker,AWI,Polarstern,North
2022-08-16T13:00:02Z,2022,13,0,228.5417,228.5417,85.751,-37.289,-999.0,1.4,-999.0,no,yes,no,300234066895230,GPS_Tracker,AWI,Polarstern,North
2022-08-16T13:59:57Z,2022,14,0,228.5833,228.5833,85.7544,-37.268,-999.0,1.3,-999.0,no,yes,no,300234066895230,GPS_Tracker,AWI,Polarstern,North
2022-08-16T15:00:00Z,2022,15,0,228.625,228.625,85.7578,-37.2434,-999.0,1.1,-999.0,no,yes,no,300234066895230,GPS_Tracker,AWI,Polarstern,North
2022-08-16T16:00:02Z,2022,16,0,228.6667,228.6667,85.7612,-37.2166,-999.0,1.0,-999.0,no,yes,no,300234066895230,GPS_Tracker,AWI,Polarstern,North
2022-08-16T16:59:57Z,2022,17,0,228.7083,228.7083,85.7644,-37.1902,-999.0,0.9,-999.0,no,yes,no,300234066895230,GPS_Tracker,AWI,Polarstern,North
2022-08-16T18:00:00Z,2022,18,0,228.75,228.75,85.7672,-37.1656,-999.0,0.7,-999.0,no,yes,no,300234066895230,GPS_Tracker,AWI,Polarstern,North
2022-08-16T19:00:02Z,2022,19,0,228.7917,228.7917,85.7698,-37.143,-999.0,0.5,-999.0,no,yes,no,300234066895230,GPS_Tracker,AWI,Polarstern,North
2022-08-16T19:59:57Z,2022,20,0,228.8333,228.8333,85.7722,-37.1236,-999.0,0.2,-999.0,no,yes,no,300234066895230,GPS_Tracker,AWI,Polarstern,North
2022-08-16T21:00:00Z,2022,21,0,228.875,228.875,85.7742,-37.109,-999.0,0.2,-999.0,no,yes,no,300234066895230,GPS_Tracker,AWI,Polarstern,North
2022-08-16T22:00:02Z,2022,22,0,228.9167,228.9167,85.7764,-37.0974,-999.0,0.2,-999.0,no,yes,no,300234066895230,GPS_Tracker,AWI,Polarstern,North
2022-08-16T22:59:57Z,2022,23,0,228.9583,228.9583,85.7786,-37.088,-999.0,0.1,-999.0,no,yes,no,300234066895230,GPS_Tracker,AWI,Polarstern,North
2022-08-17T00:00:00Z,2022,0,0,229.0,229.0,85.7806,-37.0774,-999.0,0.0,-999.0,no,yes,no,300234066895230,GPS_Tracker,AWI,Polarstern,North
2022-08-17T01:00:02Z,2022,1,0,229.0417,229.0417,85.7824,-37.0664,-999.0,-0.1,-999.0,no,yes,no,300234066895230,GPS_Tracker,AWI,Polarstern,North
2022-08-17T01:59:57Z,2022,2,0,229.0833,229.0833,85.7842,-37.056,-999.0,-0.1,-999.0,no,yes,no,300234066895230,GPS_Tracker,AWI,Polarstern,North
2022-08-17T03:00:00Z,2022,3,0,229.125,229.125,85.7858,-37.0466,-999.0,-0.2,-999.0,no,yes,no,300234066895230,GPS_Tracker,AWI,Polarstern,North
2022-08-17T04:00:02Z,2022,4,0,229.1667,229.1667,85.787,-37.0392,-999.0,-0.2,-999.0,no,yes,no,300234066895230,GPS_Tracker,AWI,Polarstern,North
2022-08-17T04:59:57Z,2022,5,0,229.2083,229.2083,85.7882,-37.0362,-999.0,-0.2,-999.0,no,yes,no,300234066895230,GPS_Tracker,AWI,Polarstern,North
2022-08-17T06:00:00Z,2022,6,0,229.25,229.25,85.7892,-37.0362,-999.0,-0.1,-999.0,no,yes,no,300234066895230,GPS_Tracker,AWI,Polarstern,North
2022-08-17T07:00:02Z,2022,7,0,229.2917,229.2917,85.79,-37.0408,-999.0,-0.2,-999.0,no,yes,no,300234066895230,GPS_Tracker,AWI,Polarstern,North
2022-08-17T07:59:57Z,2022,8,0,229.3333,229.3333,85.7908,-37.0484,-999.0,0.0,-999.0,no,yes,no,300234066895230,GPS_Tracker,AWI,Polarstern,North
2022-08-17T09:00:00Z,2022,9,0,229.375,229.375,85.7916,-37.0578,-999.0,-0.1,-999.0,no,yes,no,300234066895230,GPS_Tracker,AWI,Polarstern,North
2022-08-17T10:00:02Z,2022,10,0,229.4167,229.4167,85.7922,-37.0666,-999.0,-0.2,-999.0,no,yes,no,300234066895230,GPS_Tracker,AWI,Polarstern,North
2022-08-17T10:59:57Z,2022,11,0,229.4583,229.4583,85.7928,-37.0746,-999.0,-0.2,-999.0,no,yes,no,300234066895230,GPS_Tracker,AWI,Polarstern,North
2022-08-17T12:00:00Z,2022,12,0,229.5,229.5,85.7934,-37.0802,-999.0,0.3,-999.0,no,yes,no,300234066895230,GPS_Tracker,AWI,Polarstern,North
2022-08-17T13:00:02Z,2022,13,0,229.5417,229.5417,85.7942,-37.0852,-999.0,0.0,-999.0,no,yes,no,300234066895230,GPS_Tracker,AWI,Polarstern,North
2022-08-17T13:59:57Z,2022,14,0,229.5833,229.5833,85.7948,-37.0882,-999.0,0.2,-999.0,no,yes,no,300234066895230,GPS_Tracker,AWI,Polarstern,North
2022-08-17T15:00:00Z,2022,15,0,229.625,229.625,85.7954,-37.0916,-999.0,0.4,-999.0,no,yes,no,300234066895230,GPS_Tracker,AWI,Polarstern,North
2022-08-17T16:00:02Z,2022,16,0,229.6667,229.6667,85.796,-37.096,-999.0,0.7,-999.0,no,yes,no,300234066895230,GPS_Tracker,AWI,Polarstern,North
2022-08-17T16:59:57Z,2022,17,0,229.7083,229.7083,85.7966,-37.1028,-999.0,0.8,-999.0,no,yes,no,300234066895230,GPS_Tracker,AWI,Polarstern,North
2022-08-17T18:00:00Z,2022,18,0,229.75,229.75,85.7972,-37.1102,-999.0,0.4,-999.0,no,yes,no,300234066895230,GPS_Tracker,AWI,Polarstern,North
2022-08-17T19:00:02Z,2022,19,0,229.7917,229.7917,85.798,-37.1152,-999.0,0.5,-999.0,no,yes,no,300234066895230,GPS_Tracker,AWI,Polarstern,North
2022-08-17T19:59:57Z,2022,20,0,229.8333,229.8333,85.7986,-37.1176,-999.0,0.6,-999.0,no,yes,no,300234066895230,GPS_Tracker,AWI,Polarstern,North
2022-08-17T21:00:00Z,2022,21,0,229.875,229.875,85.7992,-37.1186,-999.0,0.2,-999.0,no,yes,no,300234066895230,GPS_Tracker,AWI,Polarstern,North
2022-08-17T22:00:02Z,2022,22,0,229.9167,229.9167,85.7996,-37.119,-999.0,0.3,-999.0,no,yes,no,300234066895230,GPS_Tracker,AWI,Polarstern,North
2022-08-17T22:59:57Z,2022,23,0,229.9583,229.9583,85.7998,-37.119,-999.0,0.8,-999.0,no,yes,no,300234066895230,GPS_Tracker,AWI,Polarstern,North
2022-08-18T00:00:00Z,2022,0,0,230.0,230.0,85.8,-37.1158,-999.0,1.2,-999.0,no,yes,no,300234066895230,GPS_Tracker,AWI,Polarstern,North
2022-08-18T01:00:02Z,2022,1,0,230.0417,230.0417,85.7998,-37.1162,-999.0,1.5,-999.0,no,yes,no,300234066895230,GPS_Tracker,AWI,Polarstern,North
2022-08-18T01:59:57Z,2022,2,0,230.0833,230.0833,85.7996,-37.1182,-999.0,1.5,-999.0,no,yes,no,300234066895230,GPS_Tracker,AWI,Polarstern,North
2022-08-18T03:00:00Z,2022,3,0,230.125,230.125,85.7992,-37.123,-999.0,1.5,-999.0,no,yes,no,300234066895230,GPS_Tracker,AWI,Polarstern,North
2022-08-18T04:00:02Z,2022,4,0,230.1667,230.1667,85.7986,-37.1328,-999.0,0.9,-999.0,no,yes,no,300234066895230,GPS_Tracker,AWI,Polarstern,North
2022-08-18T04:59:57Z,2022,5,0,230.2083,230.2083,85.7982,-37.1424,-999.0,1.1,-999.0,no,yes,no,300234066895230,GPS_Tracker,AWI,Polarstern,North
2022-08-18T06:00:00Z,2022,6,0,230.25,230.25,85.7978,-37.1494,-999.0,0.6,-999.0,no,yes,no,300234066895230,GPS_Tracker,AWI,Polarstern,North
2022-08-18T07:00:02Z,2022,7,0,230.2917,230.2917,85.797,-37.156,-999.0,0.3,-999.0,no,yes,no,300234066895230,GPS_Tracker,AWI,Polarstern,North
2022-08-18T07:59:57Z,2022,8,0,230.3333,230.3333,85.796,-37.166,-999.0,-0.4,-999.0,no,yes,no,300234066895230,GPS_Tracker,AWI,Polarstern,North
2022-08-18T09:00:00Z,2022,9,0,230.375,230.375,85.795,-37.1798,-999.0,-1.0,-999.0,no,yes,no,300234066895230,GPS_Tracker,AWI,Polarstern,North
2022-08-18T10:00:02Z,2022,10,0,230.4167,230.4167,85.7938,-37.1954,-999.0,-1.6,-999.0,no,yes,no,300234066895230,GPS_Tracker,AWI,Polarstern,North
2022-08-18T10:59:57Z,2022,11,0,230.4583,230.4583,85.7924,-37.2102,-999.0,-1.8,-999.0,no,yes,no,300234066895230,GPS_Tracker,AWI,Polarstern,North
2022-08-18T12:00:00Z,2022,12,0,230.5,230.5,85.7912,-37.2242,-999.0,-1.5,-999.0,no,yes,no,300234066895230,GPS_Tracker,AWI,Polarstern,North
2022-08-18T13:00:02Z,2022,13,0,230.5417,230.5417,85.7898,-37.2376,-999.0,-1.1,-999.0,no,yes,no,300234066895230,GPS_Tracker,AWI,Polarstern,North
2022-08-18T13:59:57Z,2022,14,0,230.5833,230.5833,85.7882,-37.2534,-999.0,-0.8,-999.0,no,yes,no,300234066895230,GPS_Tracker,AWI,Polarstern,North
2022-08-18T15:00:00Z,2022,15,0,230.625,230.625,85.7866,-37.2704,-999.0,-0.3,-999.0,no,yes,no,300234066895230,GPS_Tracker,AWI,Polarstern,North
2022-08-18T16:00:02Z,2022,16,0,230.6667,230.6667,85.7854,-37.2896,-999.0,0.0,-999.0,no,yes,no,300234066895230,GPS_Tracker,AWI,Polarstern,North
2022-08-18T16:59:57Z,2022,17,0,230.7083,230.7083,85.784,-37.308,-999.0,-0.5,-999.0,no,yes,no,300234066895230,GPS_Tracker,AWI,Polarstern,North
2022-08-18T18:00:00Z,2022,18,0,230.75,230.75,85.7828,-37.3252,-999.0,-0.4,-999.0,no,yes,no,300234066895230,GPS_Tracker,AWI,Polarstern,North
2022-08-18T19:00:02Z,2022,19,0,230.7917,230.7917,85.7818,-37.3378,-999.0,-0.6,-999.0,no,yes,no,300234066895230,GPS_Tracker,AWI,Polarstern,North
2022-08-18T19:59:57Z,2022,20,0,230.8333,230.8333,85.781,-37.3468,-999.0,-0.9,-999.0,no,yes,no,300234066895230,GPS_Tracker,AWI,Polarstern,North
2022-08-18T21:00:00Z,2022,21,0,230.875,230.875,85.7798,-37.3514,-999.0,-1.0,-999.0,no,yes,no,300234066895230,GPS_Tracker,AWI,Polarstern,North
2022-08-18T22:00:02Z,2022,22,0,230.9167,230.9167,85.7782,-37.3546,-999.0,-1.1,-999.0,no,yes,no,300234066895230,GPS_Tracker,AWI,Polarstern,North
2022-08-18T22:59:57Z,2022,23,0,230.9583,230.9583,85.7766,-37.3562,-999.0,-0.4,-999.0,no,yes,no,300234066895230,GPS_Tracker,AWI,Polarstern,North
2022-08-19T00:00:00Z,2022,0,0,231.0,231.0,85.7746,-37.3586,-999.0,0.3,-999.0,no,yes,no,300234066895230,GPS_Tracker,AWI,Polarstern,North
2022-08-19T01:00:02Z,2022,1,0,231.0417,231.0417,85.7724,-37.3634,-999.0,1.1,-999.0,no,yes,no,300234066895230,GPS_Tracker,AWI,Polarstern,North
2022-08-19T01:59:57Z,2022,2,0,231.0833,231.0833,85.7702,-37.3754,-999.0,1.4,-999.0,no,yes,no,300234066895230,GPS_Tracker,AWI,Polarstern,North
2022-08-19T03:00:00Z,2022,3,0,231.125,231.125,85.7682,-37.3872,-999.0,0.8,-999.0,no,yes,no,300234066895230,GPS_Tracker,AWI,Polarstern,North
2022-08-19T04:00:02Z,2022,4,0,231.1667,231.1667,85.7662,-37.3976,-999.0,-1.0,-999.0,no,yes,no,300234066895230,GPS_Tracker,AWI,Polarstern,North
2022-08-19T04:59:57Z,2022,5,0,231.2083,231.2083,85.7642,-37.4048,-999.0,-2.2,-999.0,no,yes,no,300234066895230,GPS_Tracker,AWI,Polarstern,North
2022-08-19T06:00:00Z,2022,6,0,231.25,231.25,85.762,-37.4094,-999.0,-3.0,-999.0,no,yes,no,300234066895230,GPS_Tracker,AWI,Polarstern,North
2022-08-19T07:00:02Z,2022,7,0,231.2917,231.2917,85.7596,-37.4106,-999.0,-3.9,-999.0,no,yes,no,300234066895230,GPS_Tracker,AWI,Polarstern,North
2022-08-19T07:59:57Z,2022,8,0,231.3333,231.3333,85.7568,-37.4128,-999.0,-4.0,-999.0,no,yes,no,300234066895230,GPS_Tracker,AWI,Polarstern,North
2022-08-19T09:00:00Z,2022,9,0,231.375,231.375,85.7536,-37.4196,-999.0,-3.9,-999.0,no,yes,no,300234066895230,GPS_Tracker,AWI,Polarstern,North
2022-08-19T10:00:02Z,2022,10,0,231.4167,231.4167,85.75,-37.4262,-999.0,-3.7,-999.0,no,yes,no,300234066895230,GPS_Tracker,AWI,Polarstern,North
2022-08-19T10:59:57Z,2022,11,0,231.4583,231.4583,85.7462,-37.435,-999.0,-3.5,-999.0,no,yes,no,300234066895230,GPS_Tracker,AWI,Polarstern,North
2022-08-19T12:00:00Z,2022,12,0,231.5,231.5,85.7426,-37.4414,-999.0,-3.2,-999.0,no,yes,no,300234066895230,GPS_Tracker,AWI,Polarstern,North
2022-08-19T13:00:02Z,2022,13,0,231.5417,231.5417,85.7388,-37.445,-999.0,-2.8,-999.0,no,yes,no,300234066895230,GPS_Tracker,AWI,Polarstern,North
2022-08-19T13:59:57Z,2022,14,0,231.5833,231.5833,85.735,-37.4462,-999.0,-2.3,-999.0,no,yes,no,300234066895230,GPS_Tracker,AWI,Polarstern,North
2022-08-19T15:00:00Z,2022,15,0,231.625,231.625,85.731,-37.4488,-999.0,-2.1,-999.0,no,yes,no,300234066895230,GPS_Tracker,AWI,Polarstern,North
2022-08-19T16:00:02Z,2022,16,0,231.6667,231.6667,85.727,-37.4542,-999.0,-2.0,-999.0,no,yes,no,300234066895230,GPS_Tracker,AWI,Polarstern,North
2022-08-19T16:59:57Z,2022,17,0,231.7083,231.7083,85.7234,-37.464,-999.0,-1.0,-999.0,no,yes,no,300234066895230,GPS_Tracker,AWI,Polarstern,North
2022-08-19T18:00:00Z,2022,18,0,231.75,231.75,85.7196,-37.479,-999.0,-0.3,-999.0,no,yes,no,300234066895230,GPS_Tracker,AWI,Polarstern,North
2022-08-19T19:00:02Z,2022,19,0,231.7917,231.7917,85.7164,-37.4904,-999.0,-0.1,-999.0,no,yes,no,300234066895230,GPS_Tracker,AWI,Polarstern,North
2022-08-19T19:59:57Z,2022,20,0,231.8333,231.8333,85.713,-37.5006,-999.0,0.0,-999.0,no,yes,no,300234066895230,GPS_Tracker,AWI,Polarstern,North
2022-08-19T21:00:00Z,2022,21,0,231.875,231.875,85.7094,-37.5096,-999.0,0.0,-999.0,no,yes,no,300234066895230,GPS_Tracker,AWI,Polarstern,North
2022-08-19T22:00:02Z,2022,22,0,231.9167,231.9167,85.7058,-37.5144,-999.0,-0.1,-999.0,no,yes,no,300234066895230,GPS_Tracker,AWI,Polarstern,North
2022-08-19T22:59:57Z,2022,23,0,231.9583,231.9583,85.7018,-37.5178,-999.0,-0.2,-999.0,no,yes,no,300234066895230,GPS_Tracker,AWI,Polarstern,North
2022-08-20T00:00:00Z,2022,0,0,232.0,232.0,85.6978,-37.5208,-999.0,-0.4,-999.0,no,yes,no,300234066895230,GPS_Tracker,AWI,Polarstern,North
2022-08-20T01:00:02Z,2022,1,0,232.0417,232.0417,85.6938,-37.519,-999.0,-0.5,-999.0,no,yes,no,300234066895230,GPS_Tracker,AWI,Polarstern,North
2022-08-20T01:59:57Z,2022,2,0,232.0833,232.0833,85.6898,-37.5158,-999.0,-0.5,-999.0,no,yes,no,300234066895230,GPS_Tracker,AWI,Polarstern,North
2022-08-20T03:00:00Z,2022,3,0,232.125,232.125,85.686,-37.5118,-999.0,-0.5,-999.0,no,yes,no,300234066895230,GPS_Tracker,AWI,Polarstern,North
2022-08-20T04:00:02Z,2022,4,0,232.1667,232.1667,85.6818,-37.505,-999.0,-0.4,-999.0,no,yes,no,300234066895230,GPS_Tracker,AWI,Polarstern,North
2022-08-20T04:59:57Z,2022,5,0,232.2083,232.2083,85.6774,-37.4946,-999.0,-0.3,-999.0,no,yes,no,300234066895230,GPS_Tracker,AWI,Polarstern,North
2022-08-20T06:00:00Z,2022,6,0,232.25,232.25,85.673,-37.4878,-999.0,-0.1,-999.0,no,yes,no,300234066895230,GPS_Tracker,AWI,Polarstern,North
2022-08-20T07:00:02Z,2022,7,0,232.2917,232.2917,85.6688,-37.4802,-999.0,0.2,-999.0,no,yes,no,300234066895230,GPS_Tracker,AWI,Polarstern,North
2022-08-20T07:59:57Z,2022,8,0,232.3333,232.3333,85.6648,-37.472,-999.0,0.4,-999.0,no,yes,no,300234066895230,GPS_Tracker,AWI,Polarstern,North
2022-08-20T09:00:00Z,2022,9,0,232.375,232.375,85.6602,-37.4654,-999.0,0.9,-999.0,no,yes,no,300234066895230,GPS_Tracker,AWI,Polarstern,North
2022-08-20T10:00:02Z,2022,10,0,232.4167,232.4167,85.6556,-37.4606,-999.0,1.2,-999.0,no,yes,no,300234066895230,GPS_Tracker,AWI,Polarstern,North